Time,TemperatureF,DewpointF,PressureIn,WindDirection,WindDirectionDegrees,WindSpeedMPH,WindSpeedGustMPH,Humidity,HourlyPrecipIn,Conditions,Clouds,dailyrainin,SoftwareType,DateUTC
2013-02-13 00:03:00,76.0,67.1,30.04,ESE,109,4.0,8.0,74,0.00,,,0.00,VWS V13.00,2013-02-13 04:03:00,
2013-02-13 00:08:00,76.1,67.2,30.04,ESE,104,4.0,8.0,74,0.00,,,0.00,VWS V13.00,2013-02-13 04:08:00,
2013-02-13 00:13:00,76.1,66.8,30.05,ESE,103,2.0,9.0,73,0.00,,,0.00,VWS V13.00,2013-02-13 04:13:00,
2013-02-13 00:18:00,76.0,66.7,30.04,NE,55,1.0,9.0,73,0.00,,,0.00,VWS V13.00,2013-02-13 04:18:00,
2013-02-13 00:23:00,76.0,66.3,30.04,ESE,113,2.0,9.0,72,0.00,,,0.00,VWS V13.00,2013-02-13 04:23:00,
2013-02-13 00:28:00,76.1,66.4,30.04,East,98,2.0,9.0,72,0.00,,,0.00,VWS V13.00,2013-02-13 04:28:00,
2013-02-13 00:33:00,75.9,66.6,30.04,ENE,66,5.0,5.0,73,0.00,,,0.00,VWS V13.00,2013-02-13 04:33:00,
2013-02-13 00:38:00,76.0,66.7,30.04,East,88,2.0,7.0,73,0.00,,,0.00,VWS V13.00,2013-02-13 04:38:00,
2013-02-13 00:43:00,75.9,67.0,30.04,ESE,104,7.0,8.0,74,0.00,,,0.00,VWS V13.00,2013-02-13 04:43:00,
2013-02-13 00:48:00,76.0,67.5,30.03,ESE,117,1.0,8.0,75,0.00,,,0.00,VWS V13.00,2013-02-13 04:48:00,
2013-02-13 00:53:00,76.1,67.2,30.04,ESE,111,4.0,9.0,74,0.00,,,0.00,VWS V13.00,2013-02-13 04:53:00,
2013-02-13 00:58:00,76.0,67.1,30.04,ESE,113,3.0,9.0,74,0.00,,,0.00,VWS V13.00,2013-02-13 04:58:00,
2013-02-13 01:00:00,76.0,67.1,30.03,ESE,120,3.0,9.0,74,0.00,,,0.00,VWS V13.00,2013-02-13 05:00:00,
2013-02-13 01:05:00,76.2,67.3,30.03,ESE,106,3.0,8.0,74,0.00,,,0.00,VWS V13.00,2013-02-13 05:05:00,
2013-02-13 01:10:00,76.2,67.3,30.03,ESE,103,3.0,10.0,74,0.00,,,0.00,VWS V13.00,2013-02-13 05:10:00,
2013-02-13 01:15:00,76.2,67.3,30.03,East,101,2.0,10.0,74,0.00,,,0.00,VWS V13.00,2013-02-13 05:15:00,
2013-02-13 01:20:00,76.2,66.9,30.03,SE,128,4.0,12.0,73,0.00,,,0.00,VWS V13.00,2013-02-13 05:20:00,
2013-02-13 01:25:00,76.0,66.7,30.03,SE,128,2.0,12.0,73,0.00,,,0.00,VWS V13.00,2013-02-13 05:25:00,
2013-02-13 01:30:00,75.9,66.2,30.02,ESE,105,2.0,12.0,72,0.00,,,0.00,VWS V13.00,2013-02-13 05:30:00,
2013-02-13 01:35:00,75.7,66.0,30.02,SSE,158,2.0,5.0,72,0.00,,,0.00,VWS V13.00,2013-02-13 05:35:00,
2013-02-13 01:40:00,75.2,66.0,30.02,SSE,157,3.0,5.0,73,0.00,,,0.00,VWS V13.00,2013-02-13 05:40:00,
2013-02-13 01:45:00,74.4,66.0,30.02,SSE,157,2.0,5.0,75,0.00,,,0.00,VWS V13.00,2013-02-13 05:45:00,
2013-02-13 01:50:00,73.8,65.8,30.02,SSE,157,2.0,5.0,76,0.00,,,0.00,VWS V13.00,2013-02-13 05:50:00,
2013-02-13 01:55:00,73.5,65.9,30.02,SSE,157,0.0,5.0,77,0.00,,,0.00,VWS V13.00,2013-02-13 05:55:00,
2013-02-13 02:00:00,73.2,65.6,30.02,SSE,157,1.0,5.0,77,0.00,,,0.00,VWS V13.00,2013-02-13 06:00:00,
2013-02-13 02:05:00,72.9,65.7,30.02,SSW,211,2.0,5.0,78,0.00,,,0.00,VWS V13.00,2013-02-13 06:05:00,
2013-02-13 02:10:00,72.6,65.3,30.01,SSW,201,1.0,5.0,78,0.00,,,0.00,VWS V13.00,2013-02-13 06:10:00,
2013-02-13 02:15:00,72.4,65.5,30.02,SSW,201,2.0,5.0,79,0.00,,,0.00,VWS V13.00,2013-02-13 06:15:00,
2013-02-13 02:20:00,72.1,65.2,30.01,SSW,201,3.0,5.0,79,0.00,,,0.00,VWS V13.00,2013-02-13 06:20:00,
2013-02-13 02:25:00,71.9,65.4,30.01,SSW,198,2.0,5.0,80,0.00,,,0.00,VWS V13.00,2013-02-13 06:25:00,
2013-02-13 02:30:00,71.7,65.2,30.01,SSW,206,2.0,5.0,80,0.00,,,0.00,VWS V13.00,2013-02-13 06:30:00,
2013-02-13 02:35:00,71.6,65.5,30.01,SSW,206,0.0,3.0,81,0.00,,,0.00,VWS V13.00,2013-02-13 06:35:00,
2013-02-13 02:40:00,71.6,65.5,30.01,SSW,206,1.0,3.0,81,0.00,,,0.00,VWS V13.00,2013-02-13 06:40:00,
2013-02-13 02:45:00,71.7,65.6,30.01,SSW,206,0.0,3.0,81,0.00,,,0.00,VWS V13.00,2013-02-13 06:45:00,
2013-02-13 02:50:00,71.7,65.6,30.01,SSW,206,0.0,3.0,81,0.00,,,0.00,VWS V13.00,2013-02-13 06:50:00,
2013-02-13 02:55:00,71.8,66.0,30.01,SSW,206,0.0,3.0,82,0.00,,,0.00,VWS V13.00,2013-02-13 06:55:00,
2013-02-13 03:00:00,71.8,66.0,30.00,SSW,206,1.0,3.0,82,0.00,,,0.00,VWS V13.00,2013-02-13 07:00:00,
2013-02-13 03:05:00,71.7,65.9,30.00,SSW,206,0.0,2.0,82,0.00,,,0.00,VWS V13.00,2013-02-13 07:05:00,
2013-02-13 03:10:00,72.0,66.6,30.00,SE,138,3.0,7.0,83,0.00,,,0.00,VWS V13.00,2013-02-13 07:10:00,
2013-02-13 03:15:00,72.4,66.6,30.00,ESE,103,1.0,7.0,82,0.00,,,0.00,VWS V13.00,2013-02-13 07:15:00,
2013-02-13 03:20:00,73.2,66.7,30.00,ESE,110,2.0,8.0,80,0.00,,,0.00,VWS V13.00,2013-02-13 07:20:00,
2013-02-13 03:25:00,73.9,66.6,30.00,ESE,115,3.0,8.0,78,0.00,,,0.00,VWS V13.00,2013-02-13 07:25:00,
2013-02-13 03:30:00,74.4,66.7,30.00,ESE,119,1.0,10.0,77,0.00,,,0.00,VWS V13.00,2013-02-13 07:30:00,
2013-02-13 03:35:00,74.7,66.6,30.00,East,99,3.0,9.0,76,0.00,,,0.00,VWS V13.00,2013-02-13 07:35:00,
2013-02-13 03:40:00,74.8,66.3,30.00,ESE,117,4.0,9.0,75,0.00,,,0.00,VWS V13.00,2013-02-13 07:40:00,
2013-02-13 03:45:00,74.8,66.3,30.00,ESE,102,3.0,9.0,75,0.00,,,0.00,VWS V13.00,2013-02-13 07:45:00,
2013-02-13 03:50:00,74.9,66.4,30.00,East,79,2.0,9.0,75,0.00,,,0.00,VWS V13.00,2013-02-13 07:50:00,
2013-02-13 03:55:00,75.0,66.6,30.00,ESE,109,3.0,9.0,75,0.00,,,0.00,VWS V13.00,2013-02-13 07:55:00,
2013-02-13 04:00:00,75.2,66.7,30.00,ESE,123,5.0,14.0,75,0.00,,,0.00,VWS V13.00,2013-02-13 08:00:00,
2013-02-13 04:05:00,75.4,66.9,30.00,SE,132,3.0,8.0,75,0.00,,,0.00,VWS V13.00,2013-02-13 08:05:00,
2013-02-13 04:10:00,75.4,66.9,29.99,ESE,103,4.0,8.0,75,0.00,,,0.00,VWS V13.00,2013-02-13 08:10:00,
2013-02-13 04:15:00,75.4,66.5,29.99,ESE,115,2.0,8.0,74,0.00,,,0.00,VWS V13.00,2013-02-13 08:15:00,
2013-02-13 04:20:00,75.4,66.2,29.99,East,101,5.0,10.0,73,0.00,,,0.00,VWS V13.00,2013-02-13 08:20:00,
2013-02-13 04:25:00,75.5,66.6,29.99,SE,136,5.0,10.0,74,0.00,,,0.00,VWS V13.00,2013-02-13 08:25:00,
2013-02-13 04:30:00,75.6,66.7,29.99,ESE,115,4.0,10.0,74,0.00,,,0.00,VWS V13.00,2013-02-13 08:30:00,
2013-02-13 04:35:00,75.6,66.7,29.99,ESE,120,3.0,9.0,74,0.00,,,0.00,VWS V13.00,2013-02-13 08:35:00,
2013-02-13 04:40:00,75.5,66.6,29.99,East,90,2.0,10.0,74,0.00,,,0.00,VWS V13.00,2013-02-13 08:40:00,
2013-02-13 04:45:00,75.5,66.2,29.99,ESE,122,2.0,10.0,73,0.00,,,0.00,VWS V13.00,2013-02-13 08:45:00,
2013-02-13 04:50:00,75.5,66.6,29.98,East,88,6.0,10.0,74,0.00,,,0.00,VWS V13.00,2013-02-13 08:50:00,
2013-02-13 04:55:00,75.4,66.5,29.99,East,88,1.0,10.0,74,0.00,,,0.00,VWS V13.00,2013-02-13 08:55:00,
2013-02-13 05:00:00,75.3,66.1,29.98,SE,126,4.0,12.0,73,0.00,,,0.00,VWS V13.00,2013-02-13 09:00:00,
2013-02-13 05:05:00,75.2,66.3,29.98,ESE,114,0.0,7.0,74,0.00,,,0.00,VWS V13.00,2013-02-13 09:05:00,
2013-02-13 05:10:00,75.2,66.7,29.99,East,101,3.0,10.0,75,0.00,,,0.00,VWS V13.00,2013-02-13 09:10:00,
2013-02-13 05:15:00,75.1,65.9,29.99,ESE,113,5.0,14.0,73,0.00,,,0.00,VWS V13.00,2013-02-13 09:15:00,
2013-02-13 05:20:00,75.1,65.9,29.99,East,94,3.0,14.0,73,0.00,,,0.00,VWS V13.00,2013-02-13 09:20:00,
2013-02-13 05:25:00,75.1,66.2,29.99,ESE,116,2.0,14.0,74,0.00,,,0.00,VWS V13.00,2013-02-13 09:25:00,
2013-02-13 05:30:00,75.1,65.9,29.99,ESE,119,2.0,14.0,73,0.00,,,0.00,VWS V13.00,2013-02-13 09:30:00,
2013-02-13 05:35:00,75.0,66.2,29.99,SE,130,4.0,8.0,74,0.00,,,0.00,VWS V13.00,2013-02-13 09:35:00,
2013-02-13 05:40:00,75.0,66.6,29.99,East,101,1.0,10.0,75,0.00,,,0.00,VWS V13.00,2013-02-13 09:40:00,
2013-02-13 05:45:00,75.0,66.6,29.99,ESE,109,3.0,10.0,75,0.00,,,0.00,VWS V13.00,2013-02-13 09:45:00,
2013-02-13 05:50:00,74.9,66.1,29.99,ESE,112,2.0,10.0,74,0.00,,,0.00,VWS V13.00,2013-02-13 09:50:00,
2013-02-13 05:55:00,74.8,66.3,29.99,ESE,105,0.0,10.0,75,0.00,,,0.00,VWS V13.00,2013-02-13 09:55:00,
2013-02-13 06:00:00,74.7,65.9,29.99,SE,142,1.0,10.0,74,0.00,,,0.00,VWS V13.00,2013-02-13 10:00:00,
2013-02-13 06:05:00,74.5,65.7,29.99,SE,144,1.0,8.0,74,0.00,,,0.00,VWS V13.00,2013-02-13 10:05:00,
2013-02-13 06:10:00,74.1,65.3,30.00,SSE,150,2.0,8.0,74,0.00,,,0.00,VWS V13.00,2013-02-13 10:10:00,
2013-02-13 06:15:00,73.3,65.3,30.00,SSE,150,1.0,8.0,76,0.00,,,0.00,VWS V13.00,2013-02-13 10:15:00,
2013-02-13 06:20:00,72.6,65.0,30.00,SSE,150,1.0,8.0,77,0.00,,,0.00,VWS V13.00,2013-02-13 10:20:00,
2013-02-13 06:25:00,72.2,64.6,30.00,SSE,152,0.0,8.0,77,0.00,,,0.00,VWS V13.00,2013-02-13 10:25:00,
2013-02-13 06:30:00,71.9,64.7,30.00,SSE,152,3.0,8.0,78,0.00,,,0.00,VWS V13.00,2013-02-13 10:30:00,
2013-02-13 06:35:00,71.6,64.8,30.00,SSE,152,3.0,3.0,79,0.00,,,0.00,VWS V13.00,2013-02-13 10:35:00,
2013-02-13 06:40:00,71.4,64.6,30.00,SSE,152,0.0,3.0,79,0.00,,,0.00,VWS V13.00,2013-02-13 10:40:00,
2013-02-13 06:45:00,71.3,64.8,30.00,SSE,152,0.0,3.0,80,0.00,,,0.00,VWS V13.00,2013-02-13 10:45:00,
2013-02-13 06:50:00,71.0,64.5,30.01,SSE,152,0.0,3.0,80,0.00,,,0.00,VWS V13.00,2013-02-13 10:50:00,
2013-02-13 06:55:00,70.9,64.8,30.01,SSE,152,1.0,3.0,81,0.00,,,0.00,VWS V13.00,2013-02-13 10:55:00,
2013-02-13 07:00:00,70.7,64.6,30.01,SSE,152,0.0,3.0,81,0.00,,,0.00,VWS V13.00,2013-02-13 11:00:00,
2013-02-13 07:05:00,70.5,64.8,30.01,SSE,152,3.0,3.0,82,0.00,,,0.00,VWS V13.00,2013-02-13 11:05:00,
2013-02-13 07:09:00,70.5,64.8,30.02,SSW,200,0.0,5.0,82,0.00,,,0.00,VWS V13.00,2013-02-13 11:09:00,
2013-02-13 07:14:00,70.5,64.8,30.02,SSW,200,0.0,5.0,82,0.00,,,0.00,VWS V13.00,2013-02-13 11:14:00,
2013-02-13 07:19:00,70.5,64.8,30.02,SSW,200,0.0,5.0,82,0.00,,,0.00,VWS V13.00,2013-02-13 11:19:00,
2013-02-13 07:24:00,70.6,65.2,30.02,SSW,200,1.0,5.0,83,0.00,,,0.00,VWS V13.00,2013-02-13 11:24:00,
2013-02-13 07:29:00,70.8,65.4,30.02,SSW,200,1.0,5.0,83,0.00,,,0.00,VWS V13.00,2013-02-13 11:29:00,
2013-02-13 07:34:00,71.0,65.2,30.02,SSW,198,0.0,3.0,82,0.00,,,0.00,VWS V13.00,2013-02-13 11:34:00,
2013-02-13 07:39:00,71.3,65.5,30.02,SSW,198,3.0,4.0,82,0.00,,,0.00,VWS V13.00,2013-02-13 11:39:00,
2013-02-13 07:44:00,71.7,65.6,30.02,SSW,198,2.0,4.0,81,0.00,,,0.00,VWS V13.00,2013-02-13 11:44:00,
2013-02-13 07:49:00,72.1,65.6,30.02,SSW,198,2.0,4.0,80,0.00,,,0.00,VWS V13.00,2013-02-13 11:49:00,
2013-02-13 07:54:00,72.6,66.1,30.03,SSW,192,4.0,4.0,80,0.00,,,0.00,VWS V13.00,2013-02-13 11:54:00,
2013-02-13 07:59:00,73.0,66.1,30.03,SSW,196,1.0,5.0,79,0.00,,,0.00,VWS V13.00,2013-02-13 11:59:00,
2013-02-13 08:04:00,73.5,66.2,30.03,SSW,196,4.0,6.0,78,0.00,,,0.00,VWS V13.00,2013-02-13 12:04:00,
2013-02-13 08:09:00,74.0,66.3,30.03,SSW,196,3.0,6.0,77,0.00,,,0.00,VWS V13.00,2013-02-13 12:09:00,
2013-02-13 08:14:00,74.4,66.3,30.03,SSW,196,2.0,6.0,76,0.00,,,0.00,VWS V13.00,2013-02-13 12:14:00,
2013-02-13 08:19:00,74.9,66.4,30.03,SSW,196,2.0,6.0,75,0.00,,,0.00,VWS V13.00,2013-02-13 12:19:00,
2013-02-13 08:24:00,75.3,66.8,30.04,SE,132,0.0,6.0,75,0.00,,,0.00,VWS V13.00,2013-02-13 12:24:00,
2013-02-13 08:29:00,75.9,66.6,30.04,SE,133,0.0,6.0,73,0.00,,,0.00,VWS V13.00,2013-02-13 12:29:00,
2013-02-13 08:34:00,76.5,67.2,30.04,SSE,160,0.0,4.0,73,0.00,,,0.00,VWS V13.00,2013-02-13 12:34:00,
2013-02-13 08:39:00,77.0,67.3,30.04,SSE,156,1.0,4.0,72,0.00,,,0.00,VWS V13.00,2013-02-13 12:39:00,
2013-02-13 08:44:00,77.6,67.1,30.04,East,80,0.0,6.0,70,0.00,,,0.00,VWS V13.00,2013-02-13 12:44:00,
2013-02-13 08:49:00,78.0,67.0,30.05,East,88,5.0,8.0,69,0.00,,,0.00,VWS V13.00,2013-02-13 12:49:00,
2013-02-13 08:54:00,78.5,66.6,30.05,ESE,105,1.0,8.0,67,0.00,,,0.00,VWS V13.00,2013-02-13 12:54:00,
2013-02-13 08:59:00,79.1,67.2,30.05,ESE,113,2.0,8.0,67,0.00,,,0.00,VWS V13.00,2013-02-13 12:59:00,
2013-02-13 09:04:00,79.7,66.9,30.05,East,91,2.0,7.0,65,0.00,,,0.00,VWS V13.00,2013-02-13 13:04:00,
2013-02-13 09:09:00,79.8,67.0,30.05,East,98,2.0,7.0,65,0.00,,,0.00,VWS V13.00,2013-02-13 13:09:00,
2013-02-13 09:14:00,79.8,67.0,30.05,East,101,3.0,10.0,65,0.00,,,0.00,VWS V13.00,2013-02-13 13:14:00,
2013-02-13 09:19:00,79.8,66.6,30.05,East,98,3.0,10.0,64,0.00,,,0.00,VWS V13.00,2013-02-13 13:19:00,
2013-02-13 09:24:00,79.8,67.0,30.05,East,101,3.0,10.0,65,0.00,,,0.00,VWS V13.00,2013-02-13 13:24:00,
2013-02-13 09:29:00,79.8,66.6,30.05,SE,136,4.0,10.0,64,0.00,,,0.00,VWS V13.00,2013-02-13 13:29:00,
2013-02-13 09:34:00,80.0,67.2,30.06,SE,132,0.0,7.0,65,0.00,,,0.00,VWS V13.00,2013-02-13 13:34:00,
2013-02-13 09:39:00,80.2,65.5,30.05,East,94,7.0,8.0,61,0.00,,,0.00,VWS V13.00,2013-02-13 13:39:00,
2013-02-13 09:44:00,80.3,66.1,30.06,East,94,3.0,8.0,62,0.00,,,0.00,VWS V13.00,2013-02-13 13:44:00,
2013-02-13 09:49:00,80.5,65.3,30.06,SE,142,3.0,8.0,60,0.00,,,0.00,VWS V13.00,2013-02-13 13:49:00,
2013-02-13 09:54:00,80.6,65.4,30.06,ESE,119,3.0,8.0,60,0.00,,,0.00,VWS V13.00,2013-02-13 13:54:00,
2013-02-13 09:59:00,80.7,66.5,30.06,East,92,3.0,9.0,62,0.00,,,0.00,VWS V13.00,2013-02-13 13:59:00,
2013-02-13 10:04:00,80.6,65.9,30.06,SE,143,4.0,10.0,61,0.00,,,0.00,VWS V13.00,2013-02-13 14:04:00,
2013-02-13 10:09:00,80.4,65.7,30.06,East,101,3.0,10.0,61,0.00,,,0.00,VWS V13.00,2013-02-13 14:09:00,
2013-02-13 10:14:00,80.5,66.8,30.06,ENE,75,1.0,11.0,63,0.00,,,0.00,VWS V13.00,2013-02-13 14:14:00,
2013-02-13 10:19:00,80.9,67.1,30.06,ESE,105,7.0,11.0,63,0.00,,,0.00,VWS V13.00,2013-02-13 14:19:00,
2013-02-13 10:24:00,80.7,66.0,30.06,ESE,104,2.0,11.0,61,0.00,,,0.00,VWS V13.00,2013-02-13 14:24:00,
2013-02-13 10:29:00,80.6,66.4,30.06,ESE,123,5.0,11.0,62,0.00,,,0.00,VWS V13.00,2013-02-13 14:29:00,
2013-02-13 10:34:00,80.6,66.8,30.06,ESE,116,5.0,7.0,63,0.00,,,0.00,VWS V13.00,2013-02-13 14:34:00,
2013-02-13 10:39:00,80.7,66.9,30.06,East,96,2.0,10.0,63,0.00,,,0.00,VWS V13.00,2013-02-13 14:39:00,
2013-02-13 10:44:00,80.8,67.0,30.07,ESE,103,2.0,10.0,63,0.00,,,0.00,VWS V13.00,2013-02-13 14:44:00,
2013-02-13 10:49:00,80.7,66.9,30.07,SE,136,8.0,10.0,63,0.00,,,0.00,VWS V13.00,2013-02-13 14:49:00,
2013-02-13 10:54:00,80.6,66.8,30.07,East,98,2.0,10.0,63,0.00,,,0.00,VWS V13.00,2013-02-13 14:54:00,
2013-02-13 10:59:00,80.9,67.1,30.07,SE,129,2.0,10.0,63,0.00,,,0.00,VWS V13.00,2013-02-13 14:59:00,
2013-02-13 11:04:00,81.0,66.8,30.07,ESE,109,7.0,9.0,62,0.00,,,0.00,VWS V13.00,2013-02-13 15:04:00,
2013-02-13 11:09:00,81.2,66.5,30.07,ESE,108,2.0,9.0,61,0.00,,,0.00,VWS V13.00,2013-02-13 15:09:00,
2013-02-13 11:14:00,81.2,66.9,30.06,ENE,62,5.0,10.0,62,0.00,,,0.00,VWS V13.00,2013-02-13 15:14:00,
2013-02-13 11:19:00,81.1,67.8,30.06,East,101,2.0,10.0,64,0.00,,,0.00,VWS V13.00,2013-02-13 15:19:00,
2013-02-13 11:24:00,80.8,67.5,30.06,East,91,7.0,10.0,64,0.00,,,0.00,VWS V13.00,2013-02-13 15:24:00,
2013-02-13 11:29:00,80.9,67.6,30.06,ESE,108,4.0,10.0,64,0.00,,,0.00,VWS V13.00,2013-02-13 15:29:00,
2013-02-13 11:34:00,80.9,67.1,30.06,ENE,75,5.0,7.0,63,0.00,,,0.00,VWS V13.00,2013-02-13 15:34:00,
2013-02-13 11:39:00,81.1,68.2,30.05,ESE,106,3.0,9.0,65,0.00,,,0.00,VWS V13.00,2013-02-13 15:39:00,
2013-02-13 11:44:00,81.1,67.3,30.06,East,89,3.0,9.0,63,0.00,,,0.00,VWS V13.00,2013-02-13 15:44:00,
2013-02-13 11:49:00,81.2,67.9,30.05,ESE,113,2.0,9.0,64,0.00,,,0.00,VWS V13.00,2013-02-13 15:49:00,
2013-02-13 11:54:00,81.1,68.7,30.05,SE,140,3.0,9.0,66,0.00,,,0.00,VWS V13.00,2013-02-13 15:54:00,
2013-02-13 11:59:00,81.2,68.8,30.05,East,84,6.0,9.0,66,0.00,,,0.00,VWS V13.00,2013-02-13 15:59:00,
2013-02-13 12:04:00,81.0,69.0,30.04,ESE,115,1.0,9.0,67,0.00,,,0.00,VWS V13.00,2013-02-13 16:04:00,
2013-02-13 12:09:00,80.8,68.8,30.04,ENE,77,7.0,10.0,67,0.00,,,0.00,VWS V13.00,2013-02-13 16:09:00,
2013-02-13 12:14:00,80.8,68.4,30.04,East,98,2.0,12.0,66,0.00,,,0.00,VWS V13.00,2013-02-13 16:14:00,
2013-02-13 12:19:00,81.0,68.6,30.04,ESE,113,3.0,12.0,66,0.00,,,0.00,VWS V13.00,2013-02-13 16:19:00,
2013-02-13 12:24:00,81.2,68.3,30.04,SE,128,4.0,12.0,65,0.00,,,0.00,VWS V13.00,2013-02-13 16:24:00,
2013-02-13 12:29:00,81.4,67.6,30.03,East,90,3.0,12.0,63,0.00,,,0.00,VWS V13.00,2013-02-13 16:29:00,
2013-02-13 12:34:00,81.5,67.2,30.03,ESE,112,3.0,11.0,62,0.00,,,0.00,VWS V13.00,2013-02-13 16:34:00,
2013-02-13 12:39:00,81.4,67.1,30.03,ESE,119,4.0,11.0,62,0.00,,,0.00,VWS V13.00,2013-02-13 16:39:00,
2013-02-13 12:44:00,81.3,68.0,30.03,East,96,3.0,11.0,64,0.00,,,0.00,VWS V13.00,2013-02-13 16:44:00,
2013-02-13 12:49:00,81.4,68.1,30.03,East,95,6.0,11.0,64,0.00,,,0.00,VWS V13.00,2013-02-13 16:49:00,
2013-02-13 12:54:00,81.4,68.5,30.02,ESE,108,5.0,11.0,65,0.00,,,0.00,VWS V13.00,2013-02-13 16:54:00,
2013-02-13 12:59:00,81.2,67.9,30.02,East,97,3.0,12.0,64,0.00,,,0.00,VWS V13.00,2013-02-13 16:59:00,
2013-02-13 13:04:00,81.3,68.0,30.02,ESE,123,5.0,7.0,64,0.00,,,0.00,VWS V13.00,2013-02-13 17:04:00,
2013-02-13 13:09:00,81.3,68.0,30.02,East,96,3.0,7.0,64,0.00,,,0.00,VWS V13.00,2013-02-13 17:09:00,
2013-02-13 13:14:00,81.4,68.1,30.02,SE,134,3.0,8.0,64,0.00,,,0.00,VWS V13.00,2013-02-13 17:14:00,
2013-02-13 13:19:00,81.2,67.9,30.01,East,89,9.0,13.0,64,0.00,,,0.00,VWS V13.00,2013-02-13 17:19:00,
2013-02-13 13:24:00,80.9,67.6,30.01,ENE,69,3.0,13.0,64,0.00,,,0.00,VWS V13.00,2013-02-13 17:24:00,
2013-02-13 13:29:00,80.8,67.5,30.01,ESE,107,4.0,13.0,64,0.00,,,0.00,VWS V13.00,2013-02-13 17:29:00,
2013-02-13 13:34:00,80.9,68.0,30.00,East,91,3.0,7.0,65,0.00,,,0.00,VWS V13.00,2013-02-13 17:34:00,
2013-02-13 13:39:00,81.1,68.2,30.01,NE,54,5.0,8.0,65,0.00,,,0.00,VWS V13.00,2013-02-13 17:39:00,
2013-02-13 13:44:00,81.3,68.0,30.00,East,88,3.0,10.0,64,0.00,,,0.00,VWS V13.00,2013-02-13 17:44:00,
2013-02-13 13:49:00,81.0,67.7,30.00,ESE,118,2.0,10.0,64,0.00,,,0.00,VWS V13.00,2013-02-13 17:49:00,
2013-02-13 13:54:00,80.8,67.9,30.00,East,86,5.0,10.0,65,0.00,,,0.00,VWS V13.00,2013-02-13 17:54:00,
2013-02-13 13:59:00,80.9,68.0,30.00,ESE,105,5.0,11.0,65,0.00,,,0.00,VWS V13.00,2013-02-13 17:59:00,
2013-02-13 14:04:00,80.7,67.8,30.00,East,92,5.0,11.0,65,0.00,,,0.00,VWS V13.00,2013-02-13 18:04:00,
2013-02-13 14:09:00,80.6,68.2,29.99,ESE,123,4.0,11.0,66,0.00,,,0.00,VWS V13.00,2013-02-13 18:09:00,
2013-02-13 14:14:00,80.9,68.5,29.99,East,92,7.0,11.0,66,0.00,,,0.00,VWS V13.00,2013-02-13 18:14:00,
2013-02-13 14:19:00,81.0,68.6,29.99,East,99,3.0,13.0,66,0.00,,,0.00,VWS V13.00,2013-02-13 18:19:00,
2013-02-13 14:24:00,80.8,68.4,29.99,ESE,113,9.0,13.0,66,0.00,,,0.00,VWS V13.00,2013-02-13 18:24:00,
2013-02-13 14:29:00,80.9,68.5,29.99,East,101,5.0,13.0,66,0.00,,,0.00,VWS V13.00,2013-02-13 18:29:00,
2013-02-13 14:34:00,81.0,68.6,29.99,East,84,8.0,10.0,66,0.00,,,0.00,VWS V13.00,2013-02-13 18:34:00,
2013-02-13 14:39:00,80.8,67.9,29.98,ESE,117,5.0,10.0,65,0.00,,,0.00,VWS V13.00,2013-02-13 18:39:00,
2013-02-13 14:44:00,80.8,68.8,29.98,East,96,5.0,10.0,67,0.00,,,0.00,VWS V13.00,2013-02-13 18:44:00,
2013-02-13 14:49:00,81.0,69.0,29.98,ESE,122,3.0,10.0,67,0.00,,,0.00,VWS V13.00,2013-02-13 18:49:00,
2013-02-13 14:54:00,81.1,68.7,29.98,ENE,76,5.0,10.0,66,0.00,,,0.00,VWS V13.00,2013-02-13 18:54:00,
2013-02-13 14:59:00,80.9,68.9,29.98,ESE,103,2.0,10.0,67,0.00,,,0.00,VWS V13.00,2013-02-13 18:59:00,
2013-02-13 15:04:00,80.9,68.9,29.98,East,95,2.0,13.0,67,0.00,,,0.00,VWS V13.00,2013-02-13 19:04:00,
2013-02-13 15:09:00,81.2,68.8,29.97,East,92,1.0,13.0,66,0.00,,,0.00,VWS V13.00,2013-02-13 19:09:00,
2013-02-13 15:14:00,81.1,68.7,29.98,ESE,108,5.0,13.0,66,0.00,,,0.00,VWS V13.00,2013-02-13 19:14:00,
2013-02-13 15:19:00,80.8,68.8,29.98,ESE,117,2.0,13.0,67,0.00,,,0.00,VWS V13.00,2013-02-13 19:19:00,
2013-02-13 15:24:00,80.4,68.4,29.97,ESE,111,4.0,13.0,67,0.00,,,0.00,VWS V13.00,2013-02-13 19:24:00,
2013-02-13 15:29:00,80.3,68.8,29.98,East,99,3.0,13.0,68,0.00,,,0.00,VWS V13.00,2013-02-13 19:29:00,
2013-02-13 15:34:00,80.4,69.3,29.98,ENE,72,7.0,10.0,69,0.00,,,0.00,VWS V13.00,2013-02-13 19:34:00,
2013-02-13 15:39:00,80.4,68.9,29.97,East,95,7.0,10.0,68,0.00,,,0.00,VWS V13.00,2013-02-13 19:39:00,
2013-02-13 15:44:00,80.3,68.8,29.97,East,92,6.0,10.0,68,0.00,,,0.00,VWS V13.00,2013-02-13 19:44:00,
2013-02-13 15:49:00,80.3,68.8,29.97,ESE,105,4.0,11.0,68,0.00,,,0.00,VWS V13.00,2013-02-13 19:49:00,
2013-02-13 15:54:00,80.4,68.9,29.97,ESE,106,4.0,11.0,68,0.00,,,0.00,VWS V13.00,2013-02-13 19:54:00,
2013-02-13 15:59:00,80.2,69.1,29.97,SE,125,4.0,13.0,69,0.00,,,0.00,VWS V13.00,2013-02-13 19:59:00,
2013-02-13 16:04:00,80.2,69.1,29.97,ESE,117,7.0,10.0,69,0.00,,,0.00,VWS V13.00,2013-02-13 20:04:00,
2013-02-13 16:09:00,80.3,69.6,29.97,East,85,3.0,10.0,70,0.00,,,0.00,VWS V13.00,2013-02-13 20:09:00,
2013-02-13 16:14:00,80.4,69.7,29.97,ESE,107,3.0,10.0,70,0.00,,,0.00,VWS V13.00,2013-02-13 20:14:00,
2013-02-13 16:19:00,80.5,69.8,29.97,East,100,3.0,10.0,70,0.00,,,0.00,VWS V13.00,2013-02-13 20:19:00,
2013-02-13 16:24:00,80.4,69.3,29.97,East,101,3.0,11.0,69,0.00,,,0.00,VWS V13.00,2013-02-13 20:24:00,
2013-02-13 16:29:00,80.2,69.5,29.97,ESE,118,3.0,11.0,70,0.00,,,0.00,VWS V13.00,2013-02-13 20:29:00,
2013-02-13 16:34:00,79.9,69.2,29.97,ESE,109,5.0,7.0,70,0.00,,,0.00,VWS V13.00,2013-02-13 20:34:00,
2013-02-13 16:39:00,79.9,69.7,29.97,ESE,123,2.0,8.0,71,0.00,,,0.00,VWS V13.00,2013-02-13 20:39:00,
2013-02-13 16:44:00,80.0,69.8,29.97,ENE,65,5.0,8.0,71,0.00,,,0.00,VWS V13.00,2013-02-13 20:44:00,
2013-02-13 16:49:00,79.8,69.2,29.97,East,95,3.0,8.0,70,0.00,,,0.00,VWS V13.00,2013-02-13 20:49:00,
2013-02-13 16:54:00,79.8,69.6,29.97,SE,126,3.0,8.0,71,0.00,,,0.00,VWS V13.00,2013-02-13 20:54:00,
2013-02-13 16:59:00,79.8,69.2,29.97,ESE,107,5.0,8.0,70,0.00,,,0.00,VWS V13.00,2013-02-13 20:59:00,
2013-02-13 17:04:00,79.5,68.9,29.97,East,89,3.0,6.0,70,0.00,,,0.00,VWS V13.00,2013-02-13 21:04:00,
2013-02-13 17:09:00,79.3,68.7,29.97,East,100,5.0,9.0,70,0.00,,,0.00,VWS V13.00,2013-02-13 21:09:00,
2013-02-13 17:14:00,79.1,68.9,29.97,ESE,111,3.0,9.0,71,0.00,,,0.00,VWS V13.00,2013-02-13 21:14:00,
2013-02-13 17:19:00,79.3,69.5,29.97,ESE,103,2.0,9.0,72,0.00,,,0.00,VWS V13.00,2013-02-13 21:19:00,
2013-02-13 17:24:00,79.3,69.1,29.97,East,98,3.0,9.0,71,0.00,,,0.00,VWS V13.00,2013-02-13 21:24:00,
2013-02-13 17:29:00,79.1,68.9,29.97,ESE,109,2.0,9.0,71,0.00,,,0.00,VWS V13.00,2013-02-13 21:29:00,
2013-02-13 17:34:00,79.1,69.3,29.97,ESE,107,2.0,5.0,72,0.00,,,0.00,VWS V13.00,2013-02-13 21:34:00,
2013-02-13 17:39:00,78.9,68.7,29.97,East,95,0.0,6.0,71,0.00,,,0.00,VWS V13.00,2013-02-13 21:39:00,
2013-02-13 17:44:00,78.7,68.5,29.97,East,88,3.0,7.0,71,0.00,,,0.00,VWS V13.00,2013-02-13 21:44:00,
2013-02-13 17:49:00,78.7,68.5,29.97,ESE,123,2.0,7.0,71,0.00,,,0.00,VWS V13.00,2013-02-13 21:49:00,
2013-02-13 17:54:00,78.5,68.3,29.98,ESE,120,4.0,7.0,71,0.00,,,0.00,VWS V13.00,2013-02-13 21:54:00,
2013-02-13 17:59:00,78.2,68.4,29.98,East,92,5.0,7.0,72,0.00,,,0.00,VWS V13.00,2013-02-13 21:59:00,
2013-02-13 18:04:00,78.0,68.2,29.98,East,88,1.0,5.0,72,0.00,,,0.00,VWS V13.00,2013-02-13 22:04:00,
2013-02-13 18:09:00,77.9,68.6,29.98,ESE,118,1.0,5.0,73,0.00,,,0.00,VWS V13.00,2013-02-13 22:09:00,
2013-02-13 18:14:00,77.7,68.0,29.98,ESE,110,1.0,7.0,72,0.00,,,0.00,VWS V13.00,2013-02-13 22:14:00,
2013-02-13 18:19:00,77.6,68.3,29.98,SE,134,2.0,7.0,73,0.00,,,0.00,VWS V13.00,2013-02-13 22:19:00,
2013-02-13 18:24:00,77.5,68.6,29.98,SE,130,3.0,7.0,74,0.00,,,0.00,VWS V13.00,2013-02-13 22:24:00,
2013-02-13 18:29:00,77.3,68.4,29.98,ESE,103,2.0,7.0,74,0.00,,,0.00,VWS V13.00,2013-02-13 22:29:00,
2013-02-13 18:34:00,77.1,67.8,29.98,ESE,107,2.0,5.0,73,0.00,,,0.00,VWS V13.00,2013-02-13 22:34:00,
2013-02-13 18:39:00,77.1,68.2,29.98,ESE,109,1.0,5.0,74,0.00,,,0.00,VWS V13.00,2013-02-13 22:39:00,
2013-02-13 18:44:00,77.1,68.6,29.98,East,100,0.0,5.0,75,0.00,,,0.00,VWS V13.00,2013-02-13 22:44:00,
2013-02-13 18:49:00,77.0,68.5,29.98,East,93,1.0,5.0,75,0.00,,,0.00,VWS V13.00,2013-02-13 22:49:00,
2013-02-13 18:54:00,76.9,68.0,29.99,East,95,1.0,6.0,74,0.00,,,0.00,VWS V13.00,2013-02-13 22:54:00,
2013-02-13 18:59:00,76.9,68.4,29.99,East,92,1.0,6.0,75,0.00,,,0.00,VWS V13.00,2013-02-13 22:59:00,
2013-02-13 19:04:00,76.8,67.9,29.99,East,94,7.0,7.0,74,0.00,,,0.00,VWS V13.00,2013-02-13 23:04:00,
2013-02-13 19:09:00,76.8,68.3,29.99,SE,141,5.0,7.0,75,0.00,,,0.00,VWS V13.00,2013-02-13 23:09:00,
2013-02-13 19:14:00,76.7,67.8,29.99,East,97,1.0,7.0,74,0.00,,,0.00,VWS V13.00,2013-02-13 23:14:00,
2013-02-13 19:19:00,76.7,67.8,29.99,East,98,3.0,7.0,74,0.00,,,0.00,VWS V13.00,2013-02-13 23:19:00,
2013-02-13 19:24:00,76.8,67.9,29.99,East,82,2.0,7.0,74,0.00,,,0.00,VWS V13.00,2013-02-13 23:24:00,
2013-02-13 19:29:00,76.8,67.9,29.99,East,88,3.0,7.0,74,0.00,,,0.00,VWS V13.00,2013-02-13 23:29:00,
2013-02-13 19:34:00,76.9,68.0,29.99,East,101,3.0,7.0,74,0.00,,,0.00,VWS V13.00,2013-02-13 23:34:00,
2013-02-13 19:39:00,76.8,67.9,30.00,East,92,5.0,7.0,74,0.00,,,0.00,VWS V13.00,2013-02-13 23:39:00,
2013-02-13 19:44:00,76.8,67.9,29.99,ESE,117,2.0,7.0,74,0.00,,,0.00,VWS V13.00,2013-02-13 23:44:00,
2013-02-13 19:49:00,76.8,67.9,30.00,SE,124,2.0,7.0,74,0.00,,,0.00,VWS V13.00,2013-02-13 23:49:00,
2013-02-13 19:54:00,76.8,67.5,30.00,ESE,103,3.0,7.0,73,0.00,,,0.00,VWS V13.00,2013-02-13 23:54:00,
2013-02-13 19:59:00,76.8,67.5,30.00,East,86,5.0,7.0,73,0.00,,,0.00,VWS V13.00,2013-02-13 23:59:00,
2013-02-13 20:04:00,76.8,67.5,30.00,East,97,5.0,8.0,73,0.00,,,0.00,VWS V13.00,2013-02-14 00:04:00,
2013-02-13 20:09:00,76.9,67.2,30.01,East,92,1.0,8.0,72,0.00,,,0.00,VWS V13.00,2013-02-14 00:09:00,
2013-02-13 20:14:00,76.9,67.2,30.01,ESE,108,4.0,8.0,72,0.00,,,0.00,VWS V13.00,2013-02-14 00:14:00,
2013-02-13 20:19:00,77.0,67.7,30.01,East,96,1.0,8.0,73,0.00,,,0.00,VWS V13.00,2013-02-14 00:19:00,
2013-02-13 20:24:00,76.9,67.2,30.01,ESE,111,1.0,8.0,72,0.00,,,0.00,VWS V13.00,2013-02-14 00:24:00,
2013-02-13 20:29:00,76.9,67.2,30.01,East,96,1.0,8.0,72,0.00,,,0.00,VWS V13.00,2013-02-14 00:29:00,
2013-02-13 20:34:00,77.0,67.3,30.01,ESE,116,3.0,7.0,72,0.00,,,0.00,VWS V13.00,2013-02-14 00:34:00,
2013-02-13 20:39:00,77.0,67.7,30.01,ENE,67,5.0,7.0,73,0.00,,,0.00,VWS V13.00,2013-02-14 00:39:00,
2013-02-13 20:44:00,77.0,67.7,30.01,East,92,3.0,8.0,73,0.00,,,0.00,VWS V13.00,2013-02-14 00:44:00,
2013-02-13 20:49:00,76.9,67.2,30.01,East,88,2.0,8.0,72,0.00,,,0.00,VWS V13.00,2013-02-14 00:49:00,